Regional Weather Roundup
Issued by NWS

Home | Current Version | Previous Version | Text Only | Print | Product List | Glossary Off
Versions: 1 2 3 4 5 6 7 8 9 10 11 12 13 14 15 16 17 18 19 20 21 22 23 24 25 26 27 28 29 30 31 32 33 34 35 36 37 38 39 40 41 42 43 44 45 46 47 48 49 50

000
ASUS43 KMPX 260810
RWRMN
WEATHER ROUNDUP FOR MINNESOTA
NATIONAL WEATHER SERVICE TWIN CITIES/CHANHASSEN MN
300 AM CDT SUN APR 26 2015


NOTE: "FAIR" INDICATES FEW OR NO CLOUDS BELOW 12,000 FEET WITH NO
SIGNIFICANT WEATHER AND/OR OBSTRUCTIONS TO VISIBILITY. N/A MEANS
CURRENT SKY AND/OR WEATHER CONDITIONS ARE NOT AVAILABLE.

MNZ060>063-068>070-260900-
   Twin Cities Metro

CITY           SKY/WX    TMP DP  RH WIND       PRES   REMARKS
TWIN CITIES    CLEAR     41  20  43 NE7       30.01S
ST PAUL        CLEAR     41  20  43 N6        30.03R
CRYSTAL        CLEAR     39  20  46 N7        30.01S
BLAINE         CLEAR     37  25  60 N5        30.02S
LAKEVILLE      CLEAR     37  27  65 NE7       30.00S
EDEN PRAIRIE   CLEAR     40  21  46 N6        30.00R
SOUTH ST PAUL  CLEAR     42  20  41 NE5       30.02R
LAKE ELMO      FAIR      37  23  56 NE6       30.02S
$$
MNZ001>005-007-008-013>017-022>024-027-028-260900-
   Northwest Minnesota

CITY           SKY/WX    TMP DP  RH WIND       PRES   REMARKS
BEMIDJI        CLEAR     36  24  64 E3        30.04S
HALLOCK        CLEAR     46  27  46 SE10      30.03R
ROSEAU         CLEAR     36  28  75 E6        30.05R
WARROAD        CLEAR     37  32  81 E7        30.06S
THIEF RVR FALL CLEAR     39  27  60 E6        30.04R
CROOKSTON      CLEAR     39  28  65 CALM      30.04R
FOSSTON        CLEAR     39  27  60 SE8       30.04R
DETROIT LAKES  CLEAR     41  19  42 SE8       30.05S
MOORHEAD       CLEAR     43  28  56 SE3       30.04R
PARK RAPIDS    CLEAR     37  13  37 CALM      30.04R
MAHNOMEN       FAIR      39  26  59 SE6       30.04R
$$
MNZ006-009>011-018-025>026-260900-
   North Central Minnesota

CITY           SKY/WX    TMP DP  RH WIND       PRES   REMARKS
BAUDETTE       CLEAR     35  27  72 E6        30.06S WCI  30
FLAG ISLAND    CLEAR     45  25  45 E8        30.06S
INTL FALLS     CLEAR     27  21  78 CALM      30.08R
WASKISH        CLEAR     30  28  93 CALM      30.06S
BIG FORK       CLEAR     28  19  69 CALM      30.08R
LONGVILLE      CLEAR     27  21  80 CALM      30.06R
GRAND RAPIDS   CLEAR     27  12  54 CALM      30.07R
CRANE LAKE     CLEAR     23  21  93 CALM      30.12R
ORR            CLEAR     27  16  63 CALM      30.06S
COOK           CLEAR     25  19  80 CALM      30.09S
WALKER         FAIR      38  14  37 E3        30.05S
$$
MNZ012-019>021-037-260900-
   Northeast Minnesota

CITY           SKY/WX    TMP DP  RH WIND       PRES   REMARKS
DULUTH         CLEAR     32  16  51 NE5       30.07R WCI  27
ELY            CLEAR     25  18  74 CALM      30.09R
HIBBING        CLEAR     22  16  78 NW5       30.08R WCI  16
EVELETH        CLEAR     25  19  80 CALM      30.08S
DULUTH HARBOR  CLEAR     36  28  75 NE3       30.10R
TWO HARBORS    CLEAR     36  18  48 N3        30.07R
SILVER BAY     CLEAR     25  18  74 CALM      30.07R
GRAND MARAIS     N/A     39  16  39 N9        30.08S
G MARAIS ARPRT CLEAR     27  14  59 N8        30.06F WCI  18
$$
MNZ029>031-032-039>041-046>048-054>057-064-260900-
   West Central Minnesota

CITY           SKY/WX    TMP DP  RH WIND       PRES   REMARKS
FERGUS FALLS   FAIR      45  12  26 E12       30.04R
WHEATON        CLEAR     30  28  93 E8        30.04R WCI  23
MORRIS         CLEAR     36  28  75 E8        30.02R
ALEXANDRIA     CLEAR     38  17  42 E10       30.04R
ELBOW LAKE     FAIR      40  25  55 E10       30.02S
WADENA         CLEAR     36  16  44 E3        30.04S
GLENWOOD       CLEAR     34  25  69 NE8       30.03S WCI  27
APPLETON       CLEAR     37  32  81 E8        30.01S
BENSON         CLEAR     37  28  70 E5        30.02S
ORTONVILLE     CLEAR     39  30  70 E8        30.01R
MADISON        CLEAR     37  32  81 E9        30.00S
WILLMAR        FAIR      39  27  60 NE8       30.03R
$$
MNZ033>034-036-042>043-049>051-058-059-260900-
   Central Minnesota

CITY           SKY/WX    TMP DP  RH WIND       PRES   REMARKS
ST CLOUD       CLEAR     35  21  56 NE6       30.03S WCI  30
SAUK CENTRE    FAIR      36  19  49 E5        30.04S
PAYNESVILLE    CLEAR     33  23  66 N3        30.04R
AITKIN         CLEAR     28  18  64 CALM      30.05R
PINE RIVER     CLEAR     32  14  47 CALM      30.09R
BRAINERD       CLEAR     29  19  66 NE6       30.05S WCI  23
STAPLES        CLEAR     34   9  35 CALM      30.05S
LONG PRAIRIE   FAIR      34  19  55 CALM      30.05R
LITTLE FALLS   CLEAR     32  18  55 CALM      30.05S
LITCHFIELD     CLEAR     37  27  65 NE5       30.02S
BUFFALO        CLEAR     37  22  54 NE8       30.03S
MAPLE LAKE     CLEAR     36  24  61 NE5       30.03S
$$
MNZ037-044-045-052-053-260900-
   East Central Minnesota

CITY           SKY/WX    TMP DP  RH WIND       PRES   REMARKS
PRINCETON      CLEAR     36  25  64 NE6       30.04S
MORA           CLEAR     32  21  64 CALM      30.07R
CAMBRIDGE      CLEAR     36  25  64 CALM      30.03S
RUSH CITY      CLEAR     32  24  73 NE6       30.05S WCI  26
MOOSE LAKE     CLEAR     30  19  64 CALM      30.05R
HINCKLEY       FAIR      30  25  80 CALM      30.06S
CLOQUET        CLEAR     27  16  63 CALM      30.07R
MCGREGOR       CLEAR     30  19  64 N3        30.06S
$$
MNZ071>073-080-081-089-090-097-098-260900-
   Southwest Minnesota

CITY           SKY/WX    TMP DP  RH WIND       PRES   REMARKS
MONTEVIDEO     CLEAR     37  28  70 SE8       30.02S
GRANITE FALLS  CLEAR     40  30  67 CALM      30.02S
CANBY          CLEAR     35  33  94 CALM      30.01R FOG
MARSHALL       CLEAR     39  34  81 CALM      29.99S
REDWOOD FALLS  CLEAR     40  29  64 NE5       30.00R
OLIVIA         CLEAR     32  27  80 NE6       30.01R WCI  26
PIPESTONE      PTCLDY    39  36  87 E2        29.97S
WINDOM         CLEAR     36  34  93 CALM      29.99R
WORTHINGTON    PTCLDY    34  28  80 NW3       29.98S
JACKSON        CLEAR     34  32  93 N3        29.99R
TRACY          CLEAR     37  33  86 CALM      29.99F
SLAYTON        CLEAR     33  33  99 CALM      29.99S
$$
MNZ065>067-074>077-082>085-091>093-260900-
   South Central Minnesota

CITY           SKY/WX    TMP DP  RH WIND       PRES   REMARKS
MANKATO        CLEAR     45  28  53 NE12      29.98S
NEW ULM        CLEAR     41  28  60 NE7       29.99S
ST JAMES       CLEAR     36  32  87 NW6       30.00R
FAIRMONT       CLEAR     37  30  75 NW6       29.98R
GLENCOE        CLEAR     40  28  61 N6        30.00R
FARIBAULT      CLEAR     39  28  65 N5        29.99S
OWATONNA       CLEAR     36  28  75 NE7       29.98S
WASECA         CLEAR     39  30  70 NE12      29.98S
ALBERT LEA     CLEAR     36  36 100 CALM      29.97R FOG
$$
MNZ078>079-086>088-094>096-260900-
   Southeast Minnesota

CITY           SKY/WX    TMP DP  RH WIND       PRES   REMARKS
ROCHESTER      CLEAR     39  23  52 E7        29.98S
RED WING       CLEAR     37  25  60 E3        29.99S
STANTON        CLEAR     38  28  68 E3        29.98S
DODGE CENTER   PTCLDY    39  30  70 NE7       29.97S
WINONA         CLEAR     34  32  93 CALM      30.01R
AUSTIN         CLEAR     34  30  86 CALM      29.97R
PRESTON        CLEAR     38  20  48 E5        29.99R
$$
ABBREVIATIONS USED IN REMARKS
   TC - TEMPERATURES IN CELSIUS
  WCI - WIND CHILL INDEX
   HX - HEAT INDEX
  VSB - VISIBILITY
$$


USA.gov is the U.S. government's official web portal to all federal, state and local government web resources and services.